Time[GMT],gps_lat[degrees_north](-3m),gps_lon[degrees_west](-3m),gps_2_lat[degrees_north](-3m),gps_2_lon[degrees_west](-3m)
2013-06-20 16:00,43.180316925,-70.428031921,,
2013-06-20 16:00,43.180267334,-70.428031921,,
2013-06-20 16:00,43.180267334,-70.428016663,43.18,-70.45
2013-06-20 17:00,43.180316925,-70.427986145,,
2013-06-20 17:00,43.180332184,-70.428001404,,
2013-06-20 17:00,43.180332184,-70.427963257,43.18,-70.43
2013-06-20 18:00,43.180435181,-70.427902222,,
2013-06-20 18:00,43.180400848,-70.427886963,,
2013-06-20 18:00,,,43.18,-70.43
2013-06-20 19:00,43.180400848,-70.427833557,,
2013-06-20 19:00,43.180416107,-70.427848816,,
2013-06-20 19:00,,,43.18,-70.43
2013-06-20 20:00,43.180400848,-70.427803040,,
2013-06-20 20:00,43.180400848,-70.427818298,,
2013-06-20 20:00,,,43.18,-70.43
2013-06-20 21:00,,,,
2013-06-20 21:00,43.180366516,-70.427803040,,
2013-06-20 21:00,,,43.18,-70.43
2013-06-20 22:00,43.180351257,-70.427833557,43.18,-70.43
2013-06-20 23:00,43.180301666,-70.427818298,43.18,-70.43
2013-06-21 00:00,43.179832458,-70.428085327,43.18,-70.43
2013-06-21 01:00,,,43.18,-70.43
2013-06-21 02:00,43.180217743,-70.427780151,43.18,-70.43
2013-06-21 03:00,43.180198669,-70.427764893,43.18,-70.43
2013-06-21 04:00,43.180183411,-70.427780151,43.18,-70.43
2013-06-21 05:00,43.180233002,-70.427749634,43.18,-70.43
2013-06-21 06:00,43.180267334,-70.427749634,43.18,-70.43
2013-06-21 07:00,43.180301666,-70.427734375,43.18,-70.43
2013-06-21 08:00,43.180301666,-70.427803040,43.18,-70.43
2013-06-21 09:00,43.180301666,-70.427803040,43.18,-70.43
2013-06-21 10:00,43.180316925,-70.427833557,43.18,-70.43
2013-06-21 11:00,43.180316925,-70.427803040,43.18,-70.43
2013-06-21 12:00,43.180248260,-70.427764893,43.18,-70.43
2013-06-21 13:00,43.180248260,-70.427764893,43.18,-70.43
2013-06-21 14:00,43.180217743,-70.427749634,43.18,-70.43
2013-06-21 15:00,43.180351257,-70.427482605,43.18,-70.43
2013-06-21 16:00,43.180198669,-70.427780151,43.18,-70.43
2013-06-21 17:00,43.180183411,-70.427803040,43.18,-70.43
2013-06-21 18:00,43.180198669,-70.427864075,43.18,-70.43
2013-06-21 19:00,43.180233002,-70.427902222,43.18,-70.43
2013-06-21 20:00,43.180248260,-70.427917480,43.18,-70.43
2013-06-21 21:00,43.180248260,-70.427917480,43.18,-70.43
2013-06-21 22:00,43.180316925,-70.427917480,43.18,-70.43
2013-06-21 23:00,43.180416107,-70.427848816,43.18,-70.43
2013-06-22 00:00,43.180332184,-70.427864075,43.18,-70.43
2013-06-22 01:00,43.180301666,-70.427818298,43.18,-70.43
2013-06-22 02:00,43.180267334,-70.427749634,43.18,-70.43
2013-06-22 03:00,43.180183411,-70.427665710,43.18,-70.43
2013-06-22 04:00,43.180217743,-70.427665710,43.18,-70.43
2013-06-22 05:00,43.180168152,-70.427650452,43.18,-70.43
2013-06-22 06:00,43.180133820,-70.427719116,43.18,-70.43
2013-06-22 07:00,43.180183411,-70.427749634,43.18,-70.43
2013-06-22 08:00,43.180149078,-70.427803040,43.18,-70.43
2013-06-22 09:00,43.180149078,-70.427780151,43.18,-70.43
2013-06-22 10:00,43.180198669,-70.427780151,43.18,-70.43
2013-06-22 11:00,43.180233002,-70.427818298,43.18,-70.43
2013-06-22 12:00,43.180217743,-70.427780151,43.18,-70.43
2013-06-22 13:00,43.180233002,-70.427780151,43.18,-70.43
2013-06-22 14:00,43.180183411,-70.428001404,43.18,-70.43
2013-06-22 15:00,43.180183411,-70.427764893,43.18,-70.43
2013-06-22 16:00,43.180198669,-70.427780151,43.18,-70.43
2013-06-22 17:00,43.180168152,-70.427780151,43.18,-70.43
2013-06-22 18:00,43.180183411,-70.427780151,43.18,-70.43
2013-06-22 19:00,43.180217743,-70.427749634,43.18,-70.43
2013-06-22 20:00,43.180248260,-70.427719116,43.18,-70.43
2013-06-22 21:00,43.180301666,-70.427749634,43.18,-70.43
2013-06-22 22:00,43.180351257,-70.427803040,43.18,-70.43
2013-06-22 23:00,43.180332184,-70.427764893,43.18,-70.43
2013-06-23 00:00,43.180217743,-70.427764893,43.18,-70.43
2013-06-23 01:00,43.180316925,-70.427719116,43.18,-70.43
2013-06-23 02:00,43.180217743,-70.427665710,43.18,-70.43
2013-06-23 03:00,43.180133820,-70.427635193,43.18,-70.43
2013-06-23 04:00,43.180149078,-70.427650452,43.18,-70.43
2013-06-23 05:00,43.180084229,-70.427665710,43.18,-70.43
2013-06-23 06:00,43.180084229,-70.427650452,43.18,-70.43
2013-06-23 07:00,43.180099487,-70.427665710,43.18,-70.43
2013-06-23 08:00,43.180168152,-70.427665710,43.18,-70.43
2013-06-23 09:00,43.180133820,-70.427764893,43.18,-70.43
2013-06-23 10:00,43.180183411,-70.427749634,,
2013-06-23 11:00,43.180282593,-70.427764893,43.18,-70.43
2013-06-23 12:00,43.180267334,-70.427764893,43.18,-70.43
2013-06-23 13:00,43.180233002,-70.427749634,43.18,-70.43
2013-06-23 14:00,43.180351257,-70.428085327,43.18,-70.43
2013-06-23 15:00,,,43.18,-70.43
2013-06-23 16:00,43.180149078,-70.427680969,43.18,-70.43
2013-06-23 17:00,43.180133820,-70.427719116,43.18,-70.43
2013-06-23 18:00,43.180099487,-70.427696228,43.18,-70.43
2013-06-23 19:00,43.180084229,-70.427696228,43.18,-70.43
2013-06-23 20:00,43.180099487,-70.427749634,43.18,-70.43
2013-06-23 21:00,43.180099487,-70.427764893,43.18,-70.43
2013-06-23 22:00,43.180149078,-70.427780151,43.18,-70.43
2013-06-23 23:00,43.180065155,-70.427749634,43.18,-70.43
2013-06-24 00:00,43.180118561,-70.427818298,43.18,-70.43
2013-06-24 01:00,43.180099487,-70.427803040,43.18,-70.43
2013-06-24 02:00,43.180084229,-70.427864075,43.18,-70.43
2013-06-24 03:00,43.180133820,-70.427886963,43.18,-70.43
2013-06-24 04:00,43.180168152,-70.427917480,43.18,-70.43
2013-06-24 05:00,43.180168152,-70.427848816,43.18,-70.43
2013-06-24 06:00,43.180133820,-70.427803040,43.18,-70.43
2013-06-24 07:00,43.180149078,-70.427749634,43.18,-70.43
2013-06-24 08:00,43.180168152,-70.427680969,43.18,-70.43
2013-06-24 09:00,43.180183411,-70.427680969,43.18,-70.43
2013-06-24 10:00,43.180217743,-70.427680969,43.18,-70.43
2013-06-24 11:00,43.180217743,-70.427696228,43.18,-70.43
2013-06-24 12:00,43.180217743,-70.427680969,43.18,-70.43
2013-06-24 13:00,43.180183411,-70.427680969,43.18,-70.43
2013-06-24 14:00,43.180133820,-70.427734375,43.18,-70.43
2013-06-24 15:00,43.180084229,-70.427764893,43.18,-70.43
2013-06-24 16:00,43.180084229,-70.427734375,43.18,-70.43
2013-06-24 17:00,43.179950714,-70.427818298,43.18,-70.43
2013-06-24 18:00,43.179985046,-70.427947998,43.18,-70.43
2013-06-24 19:00,43.179965973,-70.427917480,43.18,-70.43
2013-06-24 20:00,43.179985046,-70.427947998,43.18,-70.43
2013-06-24 21:00,43.180034637,-70.427947998,43.18,-70.43
2013-06-24 22:00,43.180118561,-70.427947998,43.18,-70.43
2013-06-24 23:00,43.180099487,-70.427734375,43.18,-70.43
2013-06-25 00:00,43.180034637,-70.427780151,43.18,-70.43
2013-06-25 01:00,43.180183411,-70.427680969,43.18,-70.43
2013-06-25 02:00,43.180168152,-70.427635193,43.18,-70.43
2013-06-25 03:00,43.180099487,-70.427719116,43.18,-70.43
2013-06-25 04:00,43.180099487,-70.427696228,43.18,-70.43
2013-06-25 05:00,43.180015564,-70.427665710,43.18,-70.43
2013-06-25 06:00,43.179985046,-70.427680969,43.18,-70.43
2013-06-25 07:00,43.179985046,-70.427696228,43.18,-70.43
2013-06-25 08:00,43.180000305,-70.427680969,43.18,-70.43
2013-06-25 09:00,43.179985046,-70.427680969,43.18,-70.43
2013-06-25 10:00,43.180000305,-70.427719116,43.18,-70.43
2013-06-25 11:00,43.180000305,-70.427749634,43.18,-70.43
2013-06-25 12:00,43.180049896,-70.427818298,43.18,-70.43
2013-06-25 13:00,43.180065155,-70.427848816,43.18,-70.43
2013-06-25 14:00,43.180065155,-70.427902222,43.18,-70.43
2013-06-25 15:00,43.180351257,-70.427436829,43.18,-70.43
2013-06-25 16:00,43.180084229,-70.427749634,43.18,-70.43
2013-06-25 17:00,43.180065155,-70.427803040,43.18,-70.43
2013-06-25 18:00,43.180065155,-70.427780151,43.18,-70.43
2013-06-25 19:00,43.180065155,-70.427734375,43.18,-70.43
2013-06-25 20:00,43.180049896,-70.427696228,43.18,-70.43
2013-06-25 21:00,43.180034637,-70.427665710,43.18,-70.43
2013-06-25 22:00,43.180084229,-70.427680969,43.18,-70.43
2013-06-25 23:00,43.180065155,-70.427680969,43.18,-70.43
2013-06-26 00:00,43.180015564,-70.427749634,43.18,-70.43
2013-06-26 01:00,43.179985046,-70.427696228,43.18,-70.43
2013-06-26 02:00,43.180000305,-70.427780151,43.18,-70.43
2013-06-26 03:00,43.180015564,-70.427833557,43.18,-70.43
2013-06-26 04:00,43.180034637,-70.427886963,43.18,-70.43
2013-06-26 05:00,43.180015564,-70.427818298,43.18,-70.43
2013-06-26 06:00,43.180015564,-70.427780151,43.18,-70.43
2013-06-26 07:00,43.180000305,-70.427818298,43.18,-70.43
2013-06-26 08:00,43.180000305,-70.427848816,43.18,-70.43
2013-06-26 09:00,43.180034637,-70.427833557,43.18,-70.43
2013-06-26 10:00,43.180065155,-70.427864075,43.18,-70.43
2013-06-26 11:00,43.180133820,-70.427818298,43.18,-70.43
2013-06-26 12:00,43.180118561,-70.427848816,43.18,-70.43
2013-06-26 13:00,43.180198669,-70.427917480,43.18,-70.43
2013-06-26 14:00,43.180168152,-70.427780151,43.18,-70.43
2013-06-26 15:00,43.180301666,-70.427597046,43.18,-70.43
2013-06-26 16:00,43.180099487,-70.427734375,43.18,-70.43
2013-06-26 17:00,43.180065155,-70.427719116,43.18,-70.43
2013-06-26 18:00,43.180034637,-70.427734375,43.18,-70.43
2013-06-26 19:00,43.180034637,-70.427734375,43.18,-70.43
2013-06-26 20:00,43.180000305,-70.427764893,43.18,-70.43
2013-06-26 21:00,43.180000305,-70.427764893,43.18,-70.43
2013-06-26 22:00,43.179985046,-70.427902222,43.18,-70.43
2013-06-26 23:00,43.180000305,-70.428115845,43.18,-70.43
2013-06-27 00:00,43.180034637,-70.428146362,43.18,-70.43
2013-06-27 01:00,43.180149078,-70.428230286,43.18,-70.43
2013-06-27 02:00,43.180301666,-70.428169250,43.18,-70.43
2013-06-27 03:00,43.180351257,-70.428070068,43.18,-70.43
2013-06-27 04:00,43.180248260,-70.428016663,43.18,-70.43
2013-06-27 05:00,43.180198669,-70.427986145,43.18,-70.43
2013-06-27 06:00,43.180168152,-70.427932739,43.18,-70.43
2013-06-27 07:00,43.180099487,-70.427833557,43.18,-70.43
2013-06-27 08:00,43.180049896,-70.427803040,43.18,-70.43
2013-06-27 09:00,43.180015564,-70.427818298,43.18,-70.43
2013-06-27 10:00,43.180015564,-70.427886963,43.18,-70.43
2013-06-27 11:00,43.180000305,-70.427886963,43.18,-70.43
2013-06-27 12:00,43.180000305,-70.427947998,43.18,-70.43
2013-06-27 13:00,43.180015564,-70.428016663,43.18,-70.43
2013-06-27 14:00,43.180099487,-70.428115845,43.18,-70.43
2013-06-27 15:00,43.180198669,-70.428199768,43.18,-70.43
2013-06-27 16:00,43.180168152,-70.428146362,43.18,-70.43
2013-06-27 17:00,43.180168152,-70.428085327,43.18,-70.43
2013-06-27 18:00,43.180168152,-70.428085327,43.18,-70.43
2013-06-27 19:00,43.180168152,-70.428070068,43.18,-70.43
2013-06-27 20:00,43.180133820,-70.428031921,43.18,-70.43
2013-06-27 21:00,43.180118561,-70.428031921,43.18,-70.43
2013-06-27 22:00,43.180084229,-70.428001404,43.18,-70.43
2013-06-27 23:00,43.180084229,-70.427947998,43.18,-70.43
2013-06-28 00:00,43.180084229,-70.428001404,43.18,-70.43
2013-06-28 01:00,43.180084229,-70.427986145,43.18,-70.43
2013-06-28 02:00,43.180065155,-70.428031921,43.18,-70.43
2013-06-28 03:00,43.180034637,-70.428085327,43.18,-70.43
2013-06-28 04:00,43.180015564,-70.428131104,43.18,-70.43
2013-06-28 05:00,43.179965973,-70.428146362,43.18,-70.43
2013-06-28 06:00,43.179882050,-70.428230286,43.18,-70.43
2013-06-28 07:00,43.179901123,-70.428230286,43.18,-70.43
2013-06-28 08:00,43.179931641,-70.428230286,43.18,-70.43
2013-06-28 09:00,43.179950714,-70.428253174,43.18,-70.43
2013-06-28 10:00,43.180000305,-70.428253174,43.18,-70.43
2013-06-28 11:00,43.180000305,-70.428169250,43.18,-70.43
2013-06-28 12:00,43.180000305,-70.428184509,43.18,-70.43
2013-06-28 13:00,43.180084229,-70.428146362,43.18,-70.43
2013-06-28 14:00,43.180183411,-70.428131104,43.18,-70.43
2013-06-28 15:00,43.180400848,-70.427917480,43.18,-70.43
2013-06-28 16:00,43.180267334,-70.427864075,43.18,-70.43
2013-06-28 17:00,43.180168152,-70.427848816,43.18,-70.43
2013-06-28 18:00,43.180168152,-70.427848816,43.18,-70.43
2013-06-28 19:00,43.179965973,-70.427848816,43.18,-70.43
2013-06-28 20:00,43.179950714,-70.427963257,43.18,-70.43
2013-06-28 21:00,43.179965973,-70.428031921,43.18,-70.43
2013-06-28 22:00,43.180015564,-70.428085327,43.18,-70.43
2013-06-28 23:00,43.180034637,-70.428016663,43.18,-70.43
2013-06-29 00:00,43.180099487,-70.428085327,43.18,-70.43
2013-06-29 01:00,43.180183411,-70.428047180,43.18,-70.43
2013-06-29 02:00,43.180217743,-70.427963257,43.18,-70.43
2013-06-29 03:00,43.180217743,-70.428001404,43.18,-70.43
2013-06-29 04:00,43.180233002,-70.427986145,43.18,-70.43
2013-06-29 05:00,43.180168152,-70.427963257,43.18,-70.43
2013-06-29 06:00,43.180084229,-70.427963257,43.18,-70.43
2013-06-29 07:00,43.180034637,-70.427963257,43.18,-70.43
2013-06-29 08:00,43.179965973,-70.427902222,43.18,-70.43
2013-06-29 09:00,43.179916382,-70.427902222,43.18,-70.43
2013-06-29 10:00,43.179931641,-70.427917480,43.18,-70.43
2013-06-29 11:00,43.179901123,-70.427963257,43.18,-70.43
2013-06-29 12:00,43.179916382,-70.427986145,43.18,-70.43
2013-06-29 13:00,43.179931641,-70.428031921,43.18,-70.43
2013-06-29 14:00,43.179985046,-70.427696228,43.18,-70.43
2013-06-29 15:00,43.180015564,-70.428085327,43.18,-70.43
2013-06-29 16:00,43.180065155,-70.428047180,43.18,-70.43
2013-06-29 17:00,43.180084229,-70.428100586,43.18,-70.43
2013-06-29 18:00,43.180149078,-70.428070068,43.18,-70.43
2013-06-29 19:00,43.180168152,-70.428031921,43.18,-70.43
2013-06-29 20:00,43.180217743,-70.427986145,43.18,-70.43
2013-06-29 21:00,43.180217743,-70.427902222,43.18,-70.43
2013-06-29 22:00,43.180301666,-70.427780151,43.18,-70.43
2013-06-29 23:00,43.180282593,-70.427719116,43.18,-70.43
2013-06-30 00:00,43.180183411,-70.427665710,43.18,-70.43
2013-06-30 01:00,43.180133820,-70.427650452,43.18,-70.43
2013-06-30 02:00,43.180133820,-70.427680969,43.18,-70.43
2013-06-30 03:00,43.180183411,-70.427734375,43.18,-70.43
2013-06-30 04:00,43.180149078,-70.427719116,43.18,-70.43
2013-06-30 05:00,43.180118561,-70.427780151,,
2013-06-30 06:00,43.180065155,-70.427886963,43.18,-70.43
2013-06-30 07:00,43.180034637,-70.427947998,43.18,-70.43
2013-06-30 08:00,43.179931641,-70.428047180,43.18,-70.43
2013-06-30 09:00,43.179901123,-70.428085327,43.18,-70.43
2013-06-30 10:00,43.179916382,-70.428115845,43.18,-70.43
2013-06-30 11:00,43.179950714,-70.428115845,43.18,-70.43
2013-06-30 12:00,43.180015564,-70.428131104,43.18,-70.43
2013-06-30 13:00,43.180034637,-70.428115845,43.18,-70.43
2013-06-30 14:00,43.180049896,-70.428100586,43.18,-70.43
2013-06-30 15:00,43.180465698,-70.428169250,43.18,-70.43
2013-06-30 16:00,43.180133820,-70.428070068,43.18,-70.43
2013-06-30 17:00,43.180099487,-70.428085327,43.18,-70.43
2013-06-30 18:00,43.180168152,-70.428115845,43.18,-70.43
2013-06-30 19:00,43.180149078,-70.428031921,43.18,-70.43
2013-06-30 20:00,43.180099487,-70.428031921,43.18,-70.43
2013-06-30 21:00,43.180133820,-70.428016663,43.18,-70.43
2013-06-30 22:00,43.180065155,-70.427917480,43.18,-70.43
2013-06-30 23:00,43.180065155,-70.427902222,43.18,-70.43
2013-07-01 00:00,43.180000305,-70.427864075,43.18,-70.43
2013-07-01 01:00,43.179965973,-70.427864075,43.18,-70.43
2013-07-01 02:00,43.179950714,-70.427864075,43.18,-70.43
2013-07-01 03:00,43.179950714,-70.427886963,43.18,-70.43
2013-07-01 04:00,43.179950714,-70.427947998,43.18,-70.43
2013-07-01 05:00,43.179965973,-70.427986145,43.18,-70.43
2013-07-01 06:00,43.179965973,-70.428031921,43.18,-70.43
2013-07-01 07:00,43.179985046,-70.428070068,43.18,-70.43
2013-07-01 08:00,43.180034637,-70.428100586,43.18,-70.43
2013-07-01 09:00,43.180034637,-70.428031921,43.18,-70.43
2013-07-01 10:00,43.180015564,-70.428031921,43.18,-70.43
2013-07-01 11:00,43.179965973,-70.428001404,43.18,-70.43
2013-07-01 12:00,43.179965973,-70.428001404,43.18,-70.43
2013-07-01 13:00,43.179985046,-70.428001404,43.18,-70.43
2013-07-01 14:00,43.180381775,-70.426719666,43.18,-70.43
2013-07-01 15:00,43.180000305,-70.428016663,43.18,-70.43
2013-07-01 16:00,43.180034637,-70.428031921,43.18,-70.43
2013-07-01 17:00,43.180065155,-70.428085327,43.18,-70.43
2013-07-01 18:00,43.180118561,-70.428085327,43.18,-70.43
2013-07-01 19:00,43.180084229,-70.428070068,43.18,-70.43
2013-07-01 20:00,43.180049896,-70.428031921,43.18,-70.43
2013-07-01 21:00,43.180034637,-70.428031921,43.18,-70.43
2013-07-01 22:00,43.180000305,-70.427986145,43.18,-70.43
2013-07-01 23:00,43.179985046,-70.427986145,43.18,-70.43
2013-07-02 00:00,43.179950714,-70.428016663,43.18,-70.43
2013-07-02 01:00,43.179950714,-70.428016663,43.18,-70.43
2013-07-02 02:00,43.179931641,-70.427986145,43.18,-70.43
2013-07-02 03:00,43.179965973,-70.428070068,43.18,-70.43
2013-07-02 04:00,43.179965973,-70.428031921,43.18,-70.43
2013-07-02 05:00,43.179965973,-70.428070068,43.18,-70.43
2013-07-02 06:00,43.180000305,-70.428085327,43.18,-70.43
2013-07-02 07:00,43.180133820,-70.428100586,43.18,-70.43
2013-07-02 08:00,43.180118561,-70.428085327,43.18,-70.43
2013-07-02 09:00,43.180118561,-70.428016663,43.18,-70.43
2013-07-02 10:00,43.180168152,-70.427917480,43.18,-70.43
2013-07-02 11:00,43.180118561,-70.427902222,43.18,-70.43
2013-07-02 12:00,43.180065155,-70.427864075,43.18,-70.43
2013-07-02 13:00,43.179965973,-70.427818298,43.18,-70.43
2013-07-02 14:00,43.179851532,-70.427833557,43.18,-70.43
2013-07-02 15:00,43.179832458,-70.427848816,43.18,-70.43
2013-07-02 16:00,43.179832458,-70.427917480,43.18,-70.43
2013-07-02 17:00,43.179832458,-70.428070068,43.18,-70.43
2013-07-02 18:00,43.179882050,-70.428215027,43.18,-70.43
2013-07-02 19:00,43.179965973,-70.428298950,43.18,-70.43
2013-07-02 20:00,43.179965973,-70.428352356,43.18,-70.43
2013-07-02 21:00,43.180015564,-70.428298950,43.18,-70.43
2013-07-02 22:00,43.180099487,-70.428253174,43.18,-70.43
2013-07-02 23:00,43.179733276,-70.428634644,43.18,-70.43
2013-07-03 00:00,43.180034637,-70.428169250,43.18,-70.43
2013-07-03 01:00,43.180015564,-70.428031921,43.18,-70.43
2013-07-03 02:00,43.180000305,-70.428001404,43.18,-70.43
2013-07-03 03:00,43.179965973,-70.427917480,43.18,-70.43
2013-07-03 04:00,43.179950714,-70.427818298,43.18,-70.43
2013-07-03 05:00,43.179916382,-70.427864075,43.18,-70.43
2013-07-03 06:00,43.179882050,-70.427864075,43.18,-70.43
2013-07-03 07:00,43.179882050,-70.427932739,43.18,-70.43
2013-07-03 08:00,43.179916382,-70.428001404,43.18,-70.43
2013-07-03 09:00,43.179931641,-70.428085327,43.18,-70.43
2013-07-03 10:00,43.179985046,-70.428100586,43.18,-70.43
2013-07-03 11:00,43.180015564,-70.428085327,43.18,-70.43
2013-07-03 12:00,43.180015564,-70.428031921,43.18,-70.43
2013-07-03 13:00,43.180015564,-70.428031921,43.18,-70.43
2013-07-03 14:00,43.180015564,-70.427818298,43.18,-70.43
2013-07-03 15:00,43.180034637,-70.427947998,43.18,-70.43
2013-07-03 16:00,43.180034637,-70.427947998,43.18,-70.43
2013-07-03 17:00,43.180034637,-70.427986145,43.18,-70.43
2013-07-03 18:00,43.180065155,-70.428001404,43.18,-70.43
2013-07-03 19:00,43.180084229,-70.428001404,43.18,-70.43
2013-07-03 20:00,43.180065155,-70.428001404,43.18,-70.43
2013-07-03 21:00,43.180049896,-70.427986145,43.18,-70.43
2013-07-03 22:00,43.180065155,-70.427986145,43.18,-70.43
2013-07-03 23:00,43.180133820,-70.427986145,43.18,-70.43
2013-07-04 00:00,43.179767609,-70.428581238,43.18,-70.43
2013-07-04 01:00,43.179931641,-70.427917480,43.18,-70.43
2013-07-04 02:00,43.179950714,-70.427932739,43.18,-70.43
2013-07-04 03:00,43.179985046,-70.427986145,43.18,-70.43
2013-07-04 04:00,43.179965973,-70.427963257,43.18,-70.43
2013-07-04 05:00,43.180015564,-70.427947998,43.18,-70.43
2013-07-04 06:00,43.180015564,-70.427917480,43.18,-70.43
2013-07-04 07:00,43.180034637,-70.427932739,43.18,-70.43
2013-07-04 08:00,43.180065155,-70.428001404,43.18,-70.43
2013-07-04 09:00,43.180084229,-70.427932739,43.18,-70.43
2013-07-04 10:00,43.180065155,-70.427917480,43.18,-70.43
2013-07-04 11:00,43.180034637,-70.427963257,43.18,-70.43
2013-07-04 12:00,43.180034637,-70.427947998,43.18,-70.43
2013-07-04 13:00,43.180034637,-70.427947998,43.18,-70.43
2013-07-04 14:00,43.180084229,-70.427680969,43.18,-70.43
2013-07-04 15:00,43.180034637,-70.427947998,43.18,-70.43
2013-07-04 16:00,43.180000305,-70.427947998,43.18,-70.43
2013-07-04 17:00,43.180015564,-70.427986145,43.18,-70.43
2013-07-04 18:00,43.180000305,-70.427963257,43.18,-70.43
2013-07-04 19:00,43.180065155,-70.428001404,43.18,-70.43
2013-07-04 20:00,43.180118561,-70.428031921,43.18,-70.43
2013-07-04 21:00,43.180149078,-70.428070068,43.18,-70.43
2013-07-04 22:00,43.180217743,-70.428001404,43.18,-70.43
2013-07-04 23:00,43.179550171,-70.428649902,43.18,-70.43
2013-07-05 00:00,43.180183411,-70.427848816,43.18,-70.43
2013-07-05 01:00,43.180133820,-70.427833557,43.18,-70.43
2013-07-05 02:00,43.180049896,-70.427803040,43.18,-70.43
2013-07-05 03:00,43.180015564,-70.427848816,43.18,-70.43
2013-07-05 04:00,43.180015564,-70.427780151,43.18,-70.43
2013-07-05 05:00,43.180000305,-70.427803040,43.18,-70.43
2013-07-05 06:00,43.180034637,-70.427833557,43.18,-70.43
2013-07-05 07:00,43.180015564,-70.427886963,43.18,-70.43
2013-07-05 08:00,43.180034637,-70.427902222,43.18,-70.43
2013-07-05 09:00,43.180065155,-70.428001404,43.18,-70.43
2013-07-05 10:00,43.180133820,-70.428001404,43.18,-70.43
2013-07-05 11:00,43.180133820,-70.427963257,43.18,-70.43
2013-07-05 12:00,43.180149078,-70.427932739,43.18,-70.43
2013-07-05 13:00,43.180133820,-70.427932739,43.18,-70.43
2013-07-05 14:00,43.180084229,-70.427902222,43.18,-70.43
2013-07-05 15:00,43.180099487,-70.427902222,43.18,-70.43
2013-07-05 16:00,43.180084229,-70.427864075,43.18,-70.43
2013-07-05 17:00,43.180065155,-70.427902222,43.18,-70.43
2013-07-05 18:00,43.180118561,-70.427902222,43.18,-70.43
2013-07-05 19:00,43.180118561,-70.427963257,43.18,-70.43
2013-07-05 20:00,43.180149078,-70.428001404,43.18,-70.43
2013-07-05 21:00,43.180183411,-70.428016663,43.18,-70.43
2013-07-05 22:00,43.180183411,-70.428001404,43.18,-70.43
2013-07-05 23:00,43.180198669,-70.427986145,43.18,-70.43
2013-07-06 00:00,43.180183411,-70.427902222,43.18,-70.43
2013-07-06 01:00,43.180118561,-70.427848816,43.18,-70.43
2013-07-06 02:00,43.180034637,-70.427864075,43.18,-70.43
2013-07-06 03:00,43.180034637,-70.427864075,43.18,-70.43
2013-07-06 04:00,43.180015564,-70.427886963,43.18,-70.43
2013-07-06 05:00,43.180000305,-70.427947998,43.18,-70.43
2013-07-06 06:00,43.179985046,-70.427963257,43.18,-70.43
2013-07-06 07:00,43.179965973,-70.427947998,43.18,-70.43
2013-07-06 08:00,43.179965973,-70.427963257,43.18,-70.43
2013-07-06 09:00,43.180034637,-70.428001404,43.18,-70.43
2013-07-06 10:00,43.180084229,-70.428001404,43.18,-70.43
2013-07-06 11:00,43.180099487,-70.427963257,,
2013-07-06 12:00,43.180133820,-70.427963257,43.18,-70.43
2013-07-06 13:00,43.180118561,-70.428230286,43.18,-70.43
2013-07-06 14:00,43.180099487,-70.427864075,43.18,-70.43
2013-07-06 15:00,43.180065155,-70.427886963,43.18,-70.43
2013-07-06 16:00,43.180049896,-70.427864075,43.18,-70.43
2013-07-06 17:00,43.180015564,-70.427864075,43.18,-70.43
2013-07-06 18:00,43.180000305,-70.427764893,43.18,-70.43
2013-07-06 19:00,43.180000305,-70.427749634,43.18,-70.43
2013-07-06 20:00,43.179965973,-70.427818298,43.18,-70.43
2013-07-06 21:00,43.179965973,-70.427902222,43.18,-70.43
2013-07-06 22:00,43.179832458,-70.427497864,43.18,-70.43
2013-07-06 23:00,43.180000305,-70.427917480,43.18,-70.43
2013-07-07 00:00,43.180015564,-70.427917480,43.18,-70.43
2013-07-07 01:00,43.180034637,-70.427917480,43.18,-70.43
2013-07-07 02:00,43.180015564,-70.427932739,43.18,-70.43
2013-07-07 03:00,43.180015564,-70.427902222,43.18,-70.43
2013-07-07 04:00,43.180015564,-70.427886963,43.18,-70.43
2013-07-07 05:00,43.180015564,-70.427886963,43.18,-70.43
2013-07-07 06:00,43.179985046,-70.427886963,43.18,-70.43
2013-07-07 07:00,43.180000305,-70.427864075,43.18,-70.43
2013-07-07 08:00,43.180000305,-70.427833557,43.18,-70.43
2013-07-07 09:00,43.180015564,-70.427864075,43.18,-70.43
2013-07-07 10:00,43.179985046,-70.427864075,43.18,-70.43
2013-07-07 11:00,43.180034637,-70.427886963,43.18,-70.43
2013-07-07 12:00,43.180034637,-70.427932739,43.18,-70.43